QPF
0.00 0.00 0.00 0.00 0.00 0.00 0.00 0.00 0.01 0.07 0.13 0.05 0.01 0.00 0.00 0.00 0.00 0.00 0.00 0.00 0.00 0.00 0.00 0.00 0.00 0.00 0.00 0.00 0.00 0.00 0.00 0.00 0.00 0.00 0.00 0.00 0.00 0.00 0.00 0.00 0.00 0.00 0.00
0.00 0.00 0.00 0.00 0.01 0.00 0.00 0.00 0.04 0.05 0.02 0.00 0.00 0.00 0.00 0.00 0.00 0.00 0.00 0.00 0.00 0.00 0.00 0.00 0.00 0.00 0.00 0.00 0.00 0.00 0.00 0.00 0.00 0.00 0.00 0.00 0.00 0.00 0.00 0.00 0.00 0.00 0.00
0.00 0.00 0.00 0.00 0.00 0.00 0.00 0.02 0.04 0.00 0.00 0.00 0.00 0.00 0.00 0.00 0.00 0.00 0.00 0.00 0.00 0.00 0.00 0.00 0.00 0.00 0.00 0.00 0.00 0.00 0.00 0.00 0.00 0.00 0.00 0.00 0.00 0.00 0.00 0.00 0.00 0.00 0.00
0.00 0.00 0.00 0.00 0.00 0.00 0.00 0.02 0.00 0.00 0.00 0.00 0.00 0.00 0.00 0.00 0.00 0.00 0.00 0.00 0.00 0.00 0.00 0.00 0.00 0.00 0.00 0.00 0.00 0.00 0.00 0.00 0.00 0.00 0.00 0.00 0.00 0.00 0.00 0.00 0.00 0.00 0.00
0.00 0.00 0.00 0.00 0.00 0.00 0.00 0.00 0.00 0.00 0.00 0.00 0.00 0.00 0.00 0.00 0.00 0.00 0.00 0.00 0.00 0.00 0.00 0.00 0.00 0.00 0.00 0.00 0.00 0.00 0.00 0.00 0.00 0.00 0.00 0.00 0.00 0.00 0.00 0.00 0.00 0.00 0.00
0.00 0.00 0.00 0.00 0.00 0.00 0.00 0.00 0.00 0.00 0.00 0.00 0.00 0.00 0.00 0.00 0.00 0.00 0.00 0.00 0.00 0.00 0.00 0.00 0.00 0.00 0.00 0.00 0.00 0.00 0.00 0.00 0.00 0.00 0.00 0.00 0.00 0.00 0.00 0.00 0.00 0.00 0.00
0.00 0.00 0.00 0.00 0.00 0.00 0.00 0.01 0.00 0.00 0.00 0.00 0.00 0.00 0.00 0.00 0.00 0.00 0.00 0.00 0.00 0.00 0.00 0.00 0.00 0.00 0.00 0.00 0.00 0.00 0.00 0.00 0.00 0.00 0.00 0.00 0.00 0.00 0.00 0.00 0.00 0.00 0.00
0.00 0.00 0.00 0.00 0.00 0.00 0.00 0.01 0.00 0.00 0.00 0.00 0.00 0.00 0.00 0.00 0.00 0.00 0.00 0.00 0.00 0.00 0.00 0.00 0.00 0.00 0.00 0.00 0.00 0.00 0.00 0.00 0.00 0.00 0.00 0.00 0.00 0.00 0.00 0.00 0.00 0.00 0.00
0.00 0.00 0.00 0.00 0.00 0.00 0.01 0.00 0.00 0.00 0.00 0.00 0.00 0.00 0.00 0.00 0.00 0.00 0.00 0.00 0.00 0.00 0.00 0.00 0.00 0.00 0.00 0.00 0.00 0.00 0.00 0.00 0.00 0.00 0.00 0.00 0.00 0.00 0.00 0.00 0.00 0.00 0.00
0.00 0.00 0.00 0.00 0.00 0.00 0.00 0.00 0.00 0.00 0.00 0.00 0.00 0.00 0.00 0.00 0.00 0.00 0.00 0.00 0.00 0.00 0.00 0.00 0.00 0.00 0.00 0.00 0.00 0.00 0.00 0.00 0.00 0.00 0.00 0.00 0.00 0.00 0.00 0.00 0.00 0.00 0.00
0.00 0.00 0.00 0.00 0.00 0.00 0.00 0.00 0.00 0.00 0.00 0.00 0.00 0.00 0.00 0.00 0.00 0.00 0.00 0.00 0.00 0.00 0.00 0.00 0.00 0.00 0.00 0.00 0.00 0.00 0.00 0.00 0.00 0.00 0.00 0.00 0.00 0.00 0.00 0.00 0.00 0.00 0.00
0.00 0.00 0.00 0.00 0.00 0.00 0.00 0.00 0.01 0.00 0.03 0.01 0.01 0.00 0.00 0.00 0.00 0.00 0.00 0.00 0.00 0.00 0.00 0.00 0.00 0.00 0.00 0.00 0.00 0.00 0.00 0.00 0.00 0.00 0.00 0.00 0.00 0.00 0.00 0.00 0.00 0.00 0.00
0.00 0.00 0.00 0.00 0.00 0.00 0.00 0.00 0.00 0.02 0.01 0.04 0.04 0.02 0.01 0.00 0.00 0.00 0.00 0.00 0.00 0.00 0.00 0.00 0.00 0.00 0.00 0.00 0.00 0.00 0.00 0.00 0.00 0.00 0.00 0.00 0.00 0.00 0.00 0.00 0.00 0.00 0.00
0.00 0.00 0.00 0.00 0.00 0.00 0.00 0.00 0.00 0.00 0.01 0.01 0.03 0.03 0.01 0.00 0.00 0.00 0.00 0.00 0.00 0.00 0.00 0.00 0.00 0.00 0.00 0.00 0.00 0.00 0.00 0.00 0.00 0.00 0.00 0.00 0.00 0.00 0.00 0.00 0.00 0.00 0.00
0.00 0.00 0.00 0.00 0.00 0.00 0.00 0.00 0.00 0.00 0.00 0.00 0.00 0.01 0.00 0.02 0.01 0.00 0.00 0.00 0.00 0.00 0.00 0.00 0.00 0.00 0.00 0.00 0.00 0.00 0.00 0.00 0.00 0.00 0.00 0.00 0.00 0.00 0.00 0.00 0.00 0.00 0.00
0.00 0.00 0.00 0.00 0.00 0.00 0.00 0.00 0.00 0.00 0.00 0.00 0.00 0.00 0.00 0.00 0.01 0.00 0.00 0.00 0.00 0.00 0.00 0.00 0.00 0.00 0.00 0.00 0.00 0.00 0.00 0.00 0.00 0.00 0.00 0.00 0.00 0.00 0.00 0.00 0.00 0.00 0.00
0.00 0.00 0.00 0.00 0.00 0.00 0.00 0.00 0.00 0.00 0.00 0.00 0.00 0.00 0.00 0.00 0.00 0.00 0.00 0.00 0.00 0.00 0.00 0.00 0.00 0.00 0.00 0.00 0.00 0.00 0.00 0.00 0.00 0.00 0.00 0.00 0.00 0.00 0.00 0.00 0.00 0.00 0.00
0.00 0.00 0.00 0.00 0.00 0.00 0.00 0.00 0.00 0.00 0.00 0.00 0.00 0.01 0.01 0.01 0.01 0.00 0.00 0.00 0.00 0.00 0.00 0.00 0.00 0.00 0.00 0.00 0.00 0.00 0.00 0.00 0.00 0.00 0.00 0.00 0.00 0.00 0.00 0.00 0.00 0.00 0.00
0.00 0.00 0.00 0.00 0.00 0.00 0.00 0.00 0.00 0.00 0.00 0.00 0.00 0.00 0.00 0.00 0.00 0.00 0.00 0.00 0.01 0.01 0.00 0.00 0.00 0.00 0.00 0.00 0.00 0.00 0.00 0.00 0.00 0.00 0.00 0.00 0.00 0.00 0.00 0.00 0.00 0.00 0.00
0.00 0.00 0.00 0.00 0.00 0.00 0.00 0.00 0.00 0.01 0.01 0.00 0.00 0.00 0.00 0.00 0.00 0.01 0.01 0.01 0.01 0.01 0.00 0.00 0.00 0.00 0.00 0.00 0.00 0.00 0.00 0.00 0.00 0.00 0.00 0.00 0.00 0.00 0.00 0.00 0.00 0.00 0.00
0.00 0.00 0.00 0.00 0.00 0.00 0.00 0.00 0.00 0.00 0.01 0.01 0.00 0.01 0.01 0.01 0.01 0.01 0.01 0.01 0.01 0.01 0.00 0.00 0.00 0.00 0.00 0.00 0.00 0.00 0.00 0.00 0.00 0.00 0.00 0.00 0.00 0.00 0.00 0.00 0.00 0.00 0.00
0.00 0.00 0.00 0.00 0.00 0.00 0.00 0.01 0.02 0.00 0.00 0.00 0.00 0.00 0.00 0.01 0.02 0.02 0.02 0.01 0.01 0.01 0.01 0.01 0.00 0.00 0.00 0.00 0.00 0.00 0.00 0.00 0.00 0.00 0.00 0.00 0.00 0.00 0.00 0.00 0.00 0.00 0.00
0.04 0.02 0.01 0.01 0.01 0.01 0.01 0.01 0.02 0.02 0.01 0.00 0.00 0.00 0.00 0.00 0.01 0.08 0.18 0.19 0.16 0.14 0.07 0.03 0.02 0.01 0.01 0.00 0.00 0.00 0.00 0.00 0.00 0.00 0.00 0.00 0.00 0.00 0.00 0.00 0.00 0.00 0.00
0.03 0.06 0.05 0.03 0.03 0.11 0.14 0.09 0.06 0.04 0.02 0.00 0.00 0.00 0.00 0.00 0.00 0.04 0.08 0.10 0.09 0.07 0.07 0.05 0.03 0.02 0.01 0.00 0.00 0.00 0.00 0.00 0.00 0.00 0.00 0.00 0.00 0.00 0.00 0.00 0.00 0.00 0.00
0.00 0.02 0.06 0.09 0.09 0.07 0.10 0.30 0.36 0.27 0.15 0.07 0.03 0.01 0.01 0.00 0.01 0.02 0.02 0.03 0.05 0.05 0.05 0.04 0.02 0.01 0.00 0.00 0.00 0.00 0.00 0.00 0.00 0.00 0.00 0.00 0.00 0.00 0.00 0.00 0.00 0.00 0.00
0.01 0.00 0.01 0.04 0.07 0.09 0.11 0.14 0.21 0.21 0.17 0.10 0.05 0.03 0.04 0.03 0.06 0.06 0.04 0.04 0.04 0.02 0.01 0.01 0.00 0.00 0.00 0.00 0.00 0.00 0.00 0.00 0.00 0.00 0.00 0.00 0.00 0.00 0.00 0.00 0.00 0.00 0.00
MSLP
1013.51 1013.76 1014.31 1014.88 1015.40 1015.76 1016.59 1016.84 1016.81 1017.53 1018.08 1018.45 1019.18 1019.95 1020.44 1020.86 1021.37 1022.10 1022.96 1023.62 1023.76 1023.85 1024.05 1024.36 1024.61 1024.88 1025.14 1025.36 1025.54 1025.70 1025.85 1026.00 1026.16 1026.28 1026.35 1026.43 1026.49 1026.52 1026.57 1026.64 1026.54 1026.38 1026.26
1014.03 1014.30 1014.09 1014.61 1015.30 1015.45 1016.02 1016.03 1016.32 1017.36 1018.30 1019.05 1019.81 1020.40 1020.72 1021.32 1021.72 1022.50 1023.15 1023.82 1024.14 1024.14 1024.36 1024.63 1024.89 1025.15 1025.42 1025.65 1025.82 1026.00 1026.19 1026.35 1026.52 1026.65 1026.67 1026.74 1026.87 1026.85 1026.83 1026.79 1026.79 1026.72 1026.82
1014.08 1014.24 1014.35 1015.18 1015.58 1015.15 1015.88 1015.76 1017.55 1018.39 1019.15 1019.69 1020.28 1020.42 1021.17 1021.56 1022.09 1022.53 1022.86 1023.26 1024.13 1024.61 1024.77 1024.97 1025.19 1025.44 1025.71 1025.96 1026.17 1026.33 1026.52 1026.68 1026.80 1026.88 1026.94 1027.01 1027.11 1027.16 1027.13 1027.19 1027.22 1027.25 1027.08
1013.20 1014.04 1014.41 1014.80 1015.07 1015.37 1015.42 1016.68 1018.16 1018.93 1019.65 1020.21 1020.67 1021.10 1021.51 1021.84 1022.42 1022.70 1022.67 1022.82 1023.29 1024.24 1025.17 1025.34 1025.48 1025.64 1025.86 1026.09 1026.30 1026.50 1026.72 1026.89 1027.02 1027.13 1027.25 1027.37 1027.46 1027.52 1027.59 1027.55 1027.59 1027.58 1027.55
1012.51 1012.81 1013.24 1013.58 1013.97 1014.36 1015.56 1016.71 1018.38 1019.12 1019.75 1020.52 1021.07 1021.50 1021.81 1022.29 1022.51 1022.78 1022.63 1022.66 1023.01 1023.16 1024.25 1025.60 1025.75 1025.88 1025.98 1026.12 1026.29 1026.51 1026.73 1026.90 1027.05 1027.24 1027.46 1027.58 1027.66 1027.67 1027.76 1027.79 1027.70 1027.76 1027.75
1012.55 1012.75 1012.67 1013.01 1013.51 1014.40 1015.40 1016.31 1018.14 1019.02 1019.70 1020.53 1021.33 1022.09 1022.55 1022.84 1022.95 1023.01 1022.83 1022.95 1023.04 1023.14 1023.73 1024.90 1025.57 1025.85 1026.16 1026.23 1026.30 1026.42 1026.63 1026.85 1027.00 1027.18 1027.48 1027.62 1027.70 1027.77 1027.90 1027.92 1028.03 1028.01 1027.97
1012.17 1012.57 1013.06 1013.61 1014.04 1014.41 1015.12 1016.46 1017.91 1018.79 1019.71 1020.64 1021.60 1022.92 1023.47 1023.46 1023.30 1022.98 1022.88 1022.97 1022.95 1023.26 1023.45 1024.09 1024.29 1025.00 1026.01 1026.33 1026.37 1026.43 1026.54 1026.68 1026.90 1027.20 1027.51 1027.65 1027.81 1027.93 1028.07 1028.13 1028.18 1028.27 1028.27
1011.77 1012.03 1012.37 1013.27 1014.00 1014.17 1015.02 1016.46 1017.67 1018.45 1019.40 1020.11 1020.10 1021.47 1022.75 1023.63 1023.52 1023.32 1023.40 1023.24 1022.66 1022.84 1023.40 1023.81 1023.84 1024.05 1024.75 1025.55 1026.08 1026.45 1026.46 1026.59 1026.84 1027.16 1027.41 1027.65 1027.71 1027.80 1027.97 1028.08 1028.19 1028.26 1028.29
1011.26 1011.76 1012.20 1012.89 1013.61 1013.93 1014.93 1016.35 1017.38 1017.91 1018.63 1019.42 1019.33 1018.95 1020.57 1020.73 1021.95 1022.90 1023.11 1022.91 1022.38 1022.70 1022.77 1023.38 1023.81 1024.10 1024.36 1024.54 1025.78 1026.28 1026.46 1026.62 1026.80 1027.04 1027.30 1027.50 1027.68 1027.85 1027.93 1027.98 1028.22 1028.26 1028.25
1010.78 1011.51 1012.14 1012.56 1013.30 1013.67 1014.54 1015.96 1016.86 1017.13 1017.53 1018.21 1018.76 1018.30 1018.25 1018.64 1019.48 1021.04 1021.93 1022.14 1022.14 1022.52 1022.63 1022.81 1023.44 1023.86 1024.13 1024.49 1025.18 1025.35 1026.16 1026.59 1026.74 1026.87 1027.09 1027.31 1027.51 1027.72 1027.88 1028.00 1028.10 1028.23 1028.18
1010.52 1011.18 1011.75 1012.37 1012.87 1013.43 1014.15 1015.36 1016.05 1016.43 1016.79 1017.24 1017.63 1017.87 1018.14 1018.47 1018.88 1019.40 1020.31 1021.21 1021.71 1021.84 1022.00 1022.66 1022.65 1023.31 1023.68 1024.04 1024.39 1025.28 1025.88 1026.42 1026.73 1026.88 1027.04 1027.19 1027.43 1027.59 1027.75 1027.90 1028.07 1028.02 1028.07
1009.37 1010.83 1011.25 1012.06 1012.51 1013.10 1013.53 1014.55 1015.45 1015.90 1016.28 1016.53 1016.87 1017.05 1017.29 1017.73 1018.07 1018.77 1019.45 1020.34 1020.63 1020.88 1021.40 1021.70 1022.38 1022.57 1022.96 1023.43 1023.64 1024.25 1025.38 1026.16 1026.59 1026.85 1027.07 1027.16 1027.19 1027.49 1027.74 1027.78 1027.87 1027.76 1027.69
1009.21 1009.57 1010.53 1011.42 1012.10 1012.75 1013.19 1013.91 1014.76 1015.32 1015.69 1016.16 1016.31 1016.67 1016.68 1017.00 1017.11 1017.99 1018.94 1019.73 1020.17 1020.30 1020.82 1021.13 1021.43 1022.05 1022.26 1022.75 1023.23 1024.16 1025.06 1025.79 1026.28 1026.64 1026.89 1027.02 1027.13 1027.26 1027.48 1027.63 1027.81 1027.71 1027.59
1007.99 1008.67 1009.78 1010.74 1011.62 1012.36 1012.89 1013.48 1014.03 1014.66 1015.18 1015.55 1015.92 1016.27 1016.43 1016.76 1017.07 1017.83 1018.17 1018.97 1019.94 1020.11 1020.43 1020.46 1020.97 1021.35 1021.66 1021.92 1022.36 1023.40 1024.43 1025.28 1025.84 1026.08 1026.50 1026.77 1026.81 1027.12 1027.33 1027.34 1027.53 1027.48 1027.55
1007.47 1008.28 1009.05 1009.85 1010.84 1011.64 1012.37 1012.90 1013.44 1013.96 1014.40 1014.95 1015.31 1015.72 1016.04 1016.36 1016.56 1017.26 1017.76 1018.33 1018.64 1019.66 1020.02 1019.98 1020.04 1020.56 1020.97 1021.31 1022.04 1022.90 1023.31 1024.46 1025.12 1025.57 1026.09 1026.47 1026.60 1026.66 1027.03 1027.02 1027.13 1027.29 1027.36
1006.76 1007.64 1008.51 1009.19 1009.99 1010.82 1011.58 1012.24 1012.83 1013.26 1013.76 1014.21 1014.65 1015.00 1015.43 1015.77 1016.29 1016.79 1017.55 1018.28 1018.30 1018.78 1019.43 1019.50 1019.45 1019.81 1020.49 1020.75 1021.49 1022.07 1022.66 1023.60 1024.26 1024.93 1025.52 1025.99 1026.19 1026.29 1026.41 1026.60 1026.58 1026.71 1026.74
1006.13 1006.80 1007.75 1008.61 1009.17 1009.91 1010.71 1011.48 1011.99 1012.54 1013.01 1013.47 1013.92 1014.24 1014.67 1015.19 1015.62 1016.34 1017.39 1018.06 1018.23 1018.45 1018.87 1019.24 1019.03 1019.68 1020.28 1020.57 1021.26 1021.65 1022.25 1022.97 1023.47 1024.25 1024.71 1025.37 1025.69 1025.77 1025.81 1026.02 1026.08 1026.24 1026.31
1005.41 1005.98 1006.93 1007.75 1008.45 1009.08 1009.81 1010.50 1011.10 1011.59 1011.97 1012.58 1013.04 1013.60 1013.89 1014.51 1015.22 1015.81 1016.93 1017.66 1017.80 1018.21 1018.52 1018.99 1019.02 1019.60 1019.81 1020.20 1020.34 1021.30 1021.47 1021.73 1022.06 1023.17 1023.70 1024.26 1024.80 1024.96 1025.09 1025.23 1025.42 1025.56 1025.65
1004.70 1005.37 1005.91 1006.64 1007.39 1008.11 1008.83 1009.52 1010.15 1010.75 1011.22 1011.79 1012.29 1012.89 1013.49 1014.04 1014.81 1015.37 1016.23 1017.12 1017.52 1017.92 1018.46 1018.68 1018.77 1018.90 1019.56 1019.94 1020.38 1020.35 1021.13 1021.09 1021.22 1021.82 1022.89 1023.63 1023.99 1024.30 1024.35 1024.54 1024.69 1024.80 1024.82
1004.04 1004.57 1005.09 1005.70 1006.46 1007.23 1007.91 1008.71 1009.38 1010.02 1010.57 1011.01 1011.57 1012.18 1012.83 1013.45 1014.09 1014.79 1015.66 1016.59 1017.24 1017.79 1018.09 1018.40 1018.38 1018.41 1018.73 1019.38 1019.98 1020.06 1020.24 1020.46 1020.74 1021.03 1022.03 1022.44 1023.06 1023.58 1023.67 1023.84 1023.94 1023.85 1023.89
1003.55 1004.03 1004.63 1005.23 1005.96 1006.66 1007.29 1007.98 1008.59 1009.38 1009.96 1010.46 1010.89 1011.58 1012.33 1012.79 1013.32 1013.99 1014.87 1015.75 1016.55 1017.15 1017.62 1017.75 1017.99 1018.04 1018.46 1018.83 1019.12 1019.33 1019.32 1019.54 1020.35 1020.64 1020.82 1021.18 1021.94 1022.24 1022.46 1022.81 1022.69 1022.76 1022.83
1003.00 1003.83 1004.28 1004.95 1005.51 1006.09 1006.66 1007.44 1007.96 1008.67 1009.39 1010.11 1010.87 1011.49 1012.17 1012.80 1013.33 1013.88 1014.50 1015.24 1015.68 1015.91 1016.70 1016.95 1017.07 1017.68 1017.67 1018.21 1018.59 1018.78 1018.90 1019.01 1019.56 1020.08 1020.86 1020.70 1020.61 1020.81 1020.89 1020.99 1021.02 1021.48 1021.80
1002.58 1003.09 1003.69 1004.60 1005.30 1005.94 1006.91 1007.47 1008.00 1008.53 1009.20 1010.12 1010.84 1011.29 1012.04 1012.65 1013.32 1014.03 1014.54 1015.19 1015.79 1016.25 1016.48 1017.24 1017.20 1017.35 1017.45 1017.78 1018.01 1018.21 1018.39 1018.86 1019.34 1019.94 1020.28 1020.39 1020.34 1020.52 1020.75 1020.44 1020.67 1021.05 1021.43
1002.55 1002.94 1003.45 1004.03 1005.37 1006.50 1007.44 1007.72 1008.34 1008.89 1009.32 1009.92 1010.41 1010.98 1011.80 1012.63 1013.41 1013.89 1014.69 1015.37 1015.65 1016.45 1017.11 1017.16 1017.90 1017.59 1017.34 1017.12 1017.57 1017.90 1018.32 1018.96 1019.29 1019.74 1020.28 1020.54 1020.32 1020.22 1020.17 1020.19 1020.49 1020.62 1021.02
1002.54 1003.02 1003.89 1004.30 1004.68 1006.40 1007.07 1007.81 1008.72 1009.01 1009.37 1010.05 1010.53 1010.75 1011.66 1012.34 1013.00 1013.64 1014.10 1015.03 1015.28 1016.32 1017.10 1017.24 1017.91 1017.91 1017.85 1018.00 1017.57 1018.06 1018.30 1018.65 1019.22 1019.79 1020.29 1020.52 1020.45 1020.56 1020.66 1020.47 1020.27 1020.71 1021.00
1002.44 1003.00 1003.59 1004.21 1005.11 1005.86 1007.12 1007.62 1008.06 1008.41 1008.69 1010.10 1010.75 1011.25 1011.66 1012.12 1012.73 1013.09 1013.49 1014.16 1014.93 1016.19 1016.91 1016.77 1017.87 1017.76 1017.60 1018.10 1018.46 1018.19 1018.39 1018.55 1018.80 1019.47 1019.88 1020.55 1020.58 1020.83 1020.77 1020.21 1020.01 1020.05 1020.30
Thickness
5692 5692 5692 5691 5689 5691 5688 5690 5693 5691 5688 5687 5684 5680 5679 5677 5674 5671 5666 5662 5662 5660 5658 5656 5653 5652 5649 5647 5644 5641 5639 5636 5633 5630 5627 5623 5619 5615 5611 5607 5602 5599 5596
5685 5687 5693 5691 5690 5691 5691 5695 5695 5690 5685 5683 5679 5676 5675 5672 5671 5667 5664 5659 5657 5657 5655 5653 5651 5649 5646 5644 5641 5638 5634 5631 5628 5625 5622 5618 5614 5610 5606 5602 5597 5593 5587
5680 5684 5689 5686 5685 5691 5691 5696 5683 5681 5678 5676 5674 5674 5671 5670 5668 5666 5664 5661 5655 5653 5651 5650 5648 5645 5643 5640 5636 5633 5630 5627 5623 5620 5617 5613 5609 5604 5601 5596 5590 5585 5582
5683 5681 5683 5685 5687 5689 5692 5685 5677 5675 5672 5670 5669 5669 5667 5667 5664 5662 5663 5663 5660 5654 5648 5647 5645 5643 5640 5637 5633 5630 5626 5623 5619 5615 5612 5607 5603 5599 5593 5589 5583 5579 5574
5687 5687 5689 5691 5693 5694 5689 5684 5673 5672 5669 5666 5665 5664 5663 5661 5661 5660 5662 5663 5661 5660 5653 5644 5642 5640 5637 5634 5631 5627 5624 5620 5616 5611 5607 5602 5598 5593 5588 5583 5579 5573 5568
5686 5687 5689 5693 5694 5692 5688 5685 5673 5671 5668 5664 5661 5657 5656 5655 5656 5657 5659 5659 5659 5658 5654 5646 5641 5638 5634 5631 5628 5625 5622 5617 5613 5609 5603 5597 5593 5588 5583 5578 5572 5567 5563
5684 5686 5685 5685 5688 5690 5689 5682 5673 5669 5664 5660 5654 5646 5645 5648 5651 5656 5657 5657 5658 5655 5654 5649 5647 5641 5632 5628 5626 5622 5618 5614 5609 5604 5598 5592 5588 5583 5578 5571 5566 5560 5555
5684 5685 5686 5685 5686 5690 5688 5679 5671 5667 5663 5661 5664 5655 5645 5642 5645 5650 5651 5654 5657 5656 5651 5648 5647 5644 5638 5630 5624 5618 5615 5611 5605 5599 5594 5589 5585 5580 5573 5568 5562 5557 5551
5681 5684 5684 5685 5684 5688 5683 5675 5670 5668 5663 5663 5668 5673 5655 5661 5655 5650 5650 5653 5657 5654 5653 5648 5644 5640 5636 5633 5623 5616 5611 5606 5601 5596 5590 5586 5580 5575 5569 5564 5558 5552 5547
5684 5682 5682 5683 5684 5686 5683 5674 5671 5672 5672 5666 5668 5676 5679 5677 5670 5658 5656 5655 5656 5652 5651 5648 5643 5638 5634 5629 5623 5618 5610 5603 5597 5592 5587 5582 5577 5571 5565 5560 5554 5548 5544
5681 5681 5681 5682 5683 5684 5682 5675 5674 5675 5675 5673 5672 5673 5673 5674 5673 5669 5659 5655 5654 5654 5651 5645 5644 5638 5633 5629 5623 5615 5608 5600 5593 5588 5583 5578 5572 5567 5561 5556 5550 5545 5540
5680 5678 5681 5681 5683 5682 5683 5678 5675 5675 5675 5676 5676 5676 5674 5670 5670 5667 5662 5656 5655 5655 5652 5647 5642 5639 5634 5628 5624 5617 5607 5597 5591 5585 5579 5574 5570 5563 5556 5552 5547 5543 5539
5681 5685 5685 5683 5683 5681 5681 5679 5676 5675 5675 5674 5675 5673 5676 5674 5676 5670 5662 5655 5651 5654 5649 5647 5644 5637 5634 5628 5622 5614 5605 5595 5589 5582 5576 5570 5565 5560 5555 5548 5542 5538 5535
5688 5690 5686 5683 5680 5678 5677 5676 5676 5674 5674 5674 5673 5672 5672 5672 5672 5666 5663 5654 5644 5646 5644 5644 5641 5636 5632 5629 5623 5614 5604 5595 5588 5583 5575 5568 5563 5556 5551 5546 5540 5536 5530
5686 5685 5684 5682 5678 5676 5674 5673 5673 5673 5673 5672 5671 5670 5670 5669 5671 5665 5663 5658 5653 5640 5639 5641 5642 5636 5631 5627 5619 5609 5603 5595 5588 5580 5571 5565 5559 5555 5548 5543 5538 5531 5526
5685 5683 5680 5680 5678 5675 5673 5672 5671 5672 5671 5671 5670 5670 5669 5669 5665 5664 5658 5652 5652 5647 5637 5638 5642 5639 5628 5623 5617 5608 5601 5595 5587 5578 5570 5563 5557 5552 5548 5541 5537 5532 5527
5682 5682 5680 5678 5679 5676 5673 5670 5670 5669 5669 5669 5669 5669 5668 5666 5664 5660 5651 5647 5646 5644 5639 5634 5636 5632 5623 5617 5612 5604 5597 5588 5583 5577 5570 5561 5554 5550 5547 5541 5537 5531 5525
5680 5680 5678 5676 5675 5675 5672 5671 5670 5669 5669 5667 5667 5665 5666 5663 5659 5656 5648 5642 5642 5638 5635 5632 5628 5623 5620 5612 5609 5600 5595 5589 5583 5576 5570 5563 5555 5551 5547 5543 5536 5532 5525
5678 5677 5679 5676 5674 5675 5674 5673 5672 5669 5668 5667 5666 5663 5661 5658 5654 5651 5647 5638 5636 5633 5627 5624 5621 5619 5612 5607 5600 5598 5588 5585 5581 5577 5568 5561 5554 5549 5547 5543 5537 5532 5525
5675 5675 5676 5677 5675 5674 5674 5671 5669 5666 5665 5666 5664 5661 5658 5654 5651 5647 5642 5634 5629 5624 5620 5618 5616 5614 5611 5604 5595 5591 5586 5582 5576 5572 5565 5560 5554 5548 5547 5542 5537 5534 5528
5669 5671 5670 5671 5670 5668 5669 5668 5668 5664 5662 5661 5661 5657 5653 5651 5648 5645 5639 5632 5624 5619 5615 5614 5610 5608 5604 5598 5592 5587 5584 5580 5570 5567 5566 5561 5553 5550 5547 5544 5539 5535 5529
5660 5660 5663 5662 5662 5664 5664 5661 5664 5660 5657 5653 5649 5647 5642 5639 5638 5634 5630 5625 5623 5621 5614 5610 5607 5600 5598 5592 5587 5582 5578 5574 5569 5563 5555 5557 5555 5553 5550 5546 5543 5536 5529
5657 5658 5657 5656 5656 5657 5649 5649 5648 5650 5646 5641 5638 5638 5634 5631 5625 5621 5616 5613 5609 5605 5604 5596 5594 5592 5588 5584 5580 5576 5573 5567 5561 5559 5550 5550 5551 5547 5543 5542 5539 5532 5525
5647 5648 5651 5648 5643 5639 5633 5634 5633 5635 5634 5631 5630 5628 5624 5618 5613 5610 5603 5600 5600 5594 5589 5589 5581 5581 5579 5577 5571 5568 5563 5556 5553 5550 5543 5541 5544 5542 5540 5537 5534 5527 5520
5638 5641 5636 5634 5636 5630 5623 5622 5617 5621 5619 5616 5613 5614 5611 5608 5602 5599 5598 5591 5591 5583 5577 5575 5569 5568 5565 5560 5560 5555 5551 5548 5543 5539 5538 5536 5535 5532 5529 5528 5526 5520 5513
5629 5629 5629 5626 5620 5620 5609 5611 5612 5613 5611 5600 5599 5594 5593 5598 5590 5589 5590 5587 5581 5571 5563 5563 5554 5555 5554 5550 5544 5542 5540 5540 5540 5534 5534 5527 5526 5523 5521 5523 5518 5514 5508